Terminal Aerodrome Forecast
Issued by NWS

Home | Current Version | Previous Version | Text Only | Print | Product List | Glossary On
Versions: 1 2 3 4 5 6 7 8 9 10 11 12
000
FTUS44 KBMX 292300
TAFTOI
TAF
KTOI 292337Z 3000/3024 00000KT P6SM BKN250
     FM300800 00000KT 4SM BR OVC250
     FM301300 17007KT P6SM SCT050 BKN100=

USA.gov is the U.S. government's official web portal to all federal, state and local government web resources and services.